DW1521 Weather Reports


Display with metric or nautical units.
time (UTC)temp
F
wind
direction
speed
MPH
gust
MPH
rain 1hr
in
rain 24hr
in
rain mn
in
humidity
%
barometer
mb
20180118014112 33 311 16.0 28.0 0.00 0.28 0.00 93 996.0
20180118013112 33 300 16.0 24.0 0.00 0.28 0.00 93 995.4
20180118012112 34 303 12.0 22.0 0.00 0.28 0.00 94 995.0
20180118011113 34 279 11.0 24.0 0.00 0.28 0.00 95 995.0
20180118010112 34 332 14.0 20.0 0.00 0.28 0.00 95 995.2
20180118005112 34 322 11.0 23.0 0.00 0.28 0.00 96 996.0
20180118003112 34 305 13.0 17.0 0.00 0.28 0.00 96 995.0
20180118002111 34 312 12.0 17.0 0.00 0.28 0.00 96 995.0
20180118001112 34 289 10.0 20.0 0.00 0.28 0.00 96 995.0
20180117235111 34 327 9.0 16.0 0.00 0.28 0.00 96 995.0
20180117234112 34 341 11.0 15.0 0.00 0.28 0.00 96 994.0
20180117233112 34 315 8.0 15.0 0.00 0.28 0.00 96 994.0
20180117231112 34 322 7.0 17.0 0.00 0.28 0.00 96 994.0
20180117224111 34 293 10.0 17.0 0.00 0.28 0.00 96 993.0
20180117221108 34 312 9.0 13.0 0.00 0.28 0.00 96 993.0
20180117214112 34 307 6.0 14.0 0.05 0.28 0.28 96 993.0
20180117213112 34 338 8.0 15.0 0.05 0.28 0.28 96 993.0
20180117212112 34 1 1.0 16.0 0.05 0.28 0.28 96 993.0
20180117211111 34 298 5.0 9.0 0.05 0.28 0.28 95 993.0
20180117210112 34 343 4.0 8.0 0.05 0.28 0.28 95 993.0
20180117202111 35 339 6.0 10.0 0.00 0.24 0.24 95 992.0
20180117201112 35 341 6.0 10.0 0.05 0.24 0.24 95 992.0
20180117200112 35 338 0.0 6.0 0.09 0.24 0.24 95 992.0
20180117195112 35 332 1.0 8.0 0.09 0.24 0.24 94 992.0
20180117193112 35 354 5.0 12.0 0.19 0.24 0.24 94 991.0
20180117191112 36 354 6.0 13.0 0.14 0.19 0.19 93 991.0
20180117190112 36 344 5.0 12.0 0.09 0.14 0.14 93 991.0
20180117185112 36 336 7.0 13.0 0.09 0.14 0.14 93 991.0
20180117184112 36 344 6.0 10.0 0.00 0.05 0.05 92 990.0
20180117183111 36 332 0.0 3.0 0.00 0.05 0.05 92 990.0
20180117182111 36 21 0.0 0.0 0.05 0.05 0.05 92 990.0
20180117181112 36 21 0.0 0.0 0.05 0.05 0.05 91 990.0
20180117180112 36 354 0.0 0.0 0.05 0.05 0.05 91 990.0
20180117175112 36 220 0.0 0.0 0.05 0.05 0.05 91 990.0
20180117173112 36 108 1.0 6.0 0.05 0.05 0.05 90 990.0
20180117172112 36 154 1.0 3.0 0.00 0.00 0.00 90 990.0
20180117171111 37 133 0.0 3.0 0.00 0.00 0.00 89 991.0
20180117165112 37 126 0.0 3.0 0.00 0.00 0.00 88 991.0
20180117163111 37 145 3.0 8.0 0.00 0.00 0.00 88 991.4
20180117162112 38 127 4.0 6.0 0.00 0.00 0.00 88 992.0
20180117161112 38 168 2.0 5.0 0.00 0.00 0.00 87 991.0
20180117155111 38 173 1.0 3.0 0.00 0.00 0.00 86 991.0
20180117154111 38 68 1.0 3.0 0.00 0.00 0.00 86 992.0
20180117153111 38 65 0.0 0.0 0.00 0.00 0.00 86 991.8
20180117150113 39 144 0.0 6.0 0.00 0.00 0.00 86 992.0
20180117145112 39 148 1.0 6.0 0.00 0.00 0.00 86 992.0
20180117144112 40 150 1.0 3.0 0.00 0.00 0.00 86 992.0
20180117143112 40 153 3.0 3.0 0.00 0.00 0.00 86 992.7
20180117135112 40 190 3.0 8.0 0.00 0.00 0.00 85 993.0
20180117130112 41 175 2.0 6.0 0.00 0.00 0.00 87 994.2
20180117122112 40 138 4.0 10.0 0.00 0.00 0.00 85 996.0
20180117120113 41 145 5.0 6.0 0.00 0.00 0.00 83 996.0
20180117115112 42 188 0.0 6.0 0.00 0.00 0.00 82 996.0
20180117113112 44 233 3.0 6.0 0.00 0.00 0.00 83 997.0
20180117112112 44 127 3.0 6.0 0.00 0.00 0.00 86 997.0
20180117095112 33 245 0.0 3.0 0.00 0.09 0.00 97 999.0
20180117092112 32 16 0.0 0.0 0.00 0.09 0.00 99 1000.0
20180117082112 26 300 0.0 0.0 0.00 0.09 0.00 98 1001.0
20180117080113 26 300 0.0 2.0 0.00 0.09 0.00 97 1002.0
20180117075112 26 299 0.0 2.0 0.00 0.09 0.00 97 1002.0
20180117072112 24 143 0.0 3.0 0.00 0.09 0.00 97 1002.0
20180117071112 24 137 0.0 2.0 0.00 0.09 0.00 96 1002.0
20180117070113 23 274 0.0 0.0 0.00 0.09 0.00 96 1002.0
20180117065113 23 274 0.0 0.0 0.00 0.09 0.00 96 1002.0
20180117064111 23 274 0.0 0.0 0.00 0.09 0.00 96 1002.0
20180117063111 23 270 0.0 0.0 0.00 0.09 0.00 96 1002.0
20180117060112 23 353 0.0 0.0 0.00 0.09 0.00 96 1002.0
20180117055111 24 308 0.0 0.0 0.00 0.09 0.00 96 1002.0
20180117054111 24 308 0.0 2.0 0.00 0.09 0.00 96 1002.0
20180117052112 24 308 0.0 0.0 0.00 0.09 0.00 96 1002.0
20180117051112 24 308 0.0 0.0 0.00 0.09 0.00 96 1003.0
20180117050112 24 308 0.0 0.0 0.00 0.09 0.00 96 1003.0
20180117043111 24 308 0.0 0.0 0.00 0.09 0.00 96 1003.0
20180117042111 24 308 0.0 0.0 0.00 0.09 0.00 96 1003.0
20180117035112 25 245 0.0 0.0 0.00 0.09 0.00 96 1003.0
20180117034111 25 158 1.0 3.0 0.00 0.09 0.00 96 1003.0
20180117032111 25 154 0.0 0.0 0.00 0.09 0.00 96 1003.0
20180117025112 25 330 0.0 2.0 0.00 0.09 0.00 96 1004.0
20180117024112 25 329 0.0 2.0 0.00 0.09 0.00 96 1004.0
20180117023111 25 311 0.0 3.0 0.00 0.09 0.00 95 1004.0
20180117022112 25 353 0.0 0.0 0.00 0.09 0.00 95 1004.0
20180117021112 25 171 0.0 0.0 0.00 0.09 0.00 95 1004.0